Volver al catálogo

STARLINK-32723

ActivoComunicacionesVLEO
NORAD 62449·PAYLOAD·🇺🇸 United States

Lanzado Dec 29, 2024 desde Vandenberg Space Force Base

Loading…

Próximos Pases (próximas 24 horas)

TLE

ActualizadoSource: CelesTrak SupGP

Época: Sep 15, 2026, 02:37 UTC

1 62449C 24251T   26258.10951389 -.00059892  00000+0 -17696-2 0  2581
2 62449  53.1566 172.5571 0001379  82.3945 165.6540 15.34418433    16

Sigue STARLINK-32723 en tiempo real con AllMySat

Download on the App Store